Location: Street
(51.1247°N, 2.7429°W)
Time: 08:05:30
(UTC+01:00)

UWE-3 - Pass Details

Date: 02 April 2023
Orbit: 576 x 669 km, 97.7° (Epoch: 02 June)

Event Time Altitude Azimuth Distance (km) Brightness Sun altitude
Rises 02:50:47 0° 29° (NNE) 2,979 ? -30.4°
Reaches altitude 10° 02:54:06 10° 55° (NE) 2,041 ? -30.2°
Maximum altitude 02:56:24 14° 86° (E) 1,774 ? -30.0°
Enters shadow 02:57:22 13° 101° (E) 1,812 ? -29.9°
